Regional Weather Roundup
Issued by NWS

Home | Current Version | Previous Version | Text Only | Print | Product List | Glossary On
Versions: 1 2 3 4 5 6 7 8 9 10 11 12 13 14 15 16 17 18 19 20 21 22 23 24 25 26 27 28 29 30 31 32 33 34 35 36 37 38 39 40 41 42 43 44 45 46 47 48 49 50
738
ASUS44 KLIX 212205
RWRLA
LOUISIANA WEATHER ROUNDUP
NATIONAL WEATHER SERVICE NEW ORLEANS LA
500 PM CDT TUE OCT 21 2014

NOTE: "FAIR" INDICATES FEW OR NO CLOUDS BELOW 12,000 FEET WITH NO
      SIGNIFICANT WEATHER AND/OR OBSTRUCTIONS TO VISIBILITY.
      SKY/WX - SKY CONDITION AND SIGNIFICANT WEATHER.
      TMP - AIR TEMPERATURE.    DP   - DEWPOINT TEMPERATURE.
      RH  - RELATIVE HUMIDITY.  PRES - PRESSURE.
      HX  - HEAT INDEX.         WCI  - WIND CHILL INDEX.

*  THESE STATIONS ARE NOT NWS OR FAA STATIONS AND ARE NOT UNDER
   NWS QUALITY CONTROL.

LAZ040-048-061>063-065-066-069-212300-
SOUTHEAST LOUISIANA

CITY           SKY/WX    TMP DP  RH WIND       PRES   REMARKS
N.O. AUDUBON     N/A     79  56  45 MISG        N/A
N.O. INTL ARPT MOSUNNY   79  53  40 E6        29.97F
N.O. LAKEFRONT SUNNY     76  56  49 W3        29.98S
N.O. DOWNTOWN* FAIR      81  52  36 E3        29.98S
SLIDELL        SUNNY     81  54  39 NE6       29.96F
BATON ROUGE    SUNNY     80  55  42 NE6       29.98F
BOOTHVILLE     SUNNY     75  58  55 NE8       29.97F
BELLE CHASSE   SUNNY     78  52  40 E6        29.97F
BOGALUSA*      FAIR      81  50  33 NE7       29.99S
NEW ROADS*     FAIR      79  57  47 N7        29.99F
GONZALES*      FAIR      81  56  42 N6        29.97F
HAMMOND*       SUNNY     82  50  32 N9        29.99S
HOUMA*         SUNNY     81  54  39 NE3       29.97F
PORT FOURCHON* CLEAR     77  57  50 NE7G14    30.00F

$$

LAZ041-044-053-054-212300-
SOUTHWEST LOUISIANA

CITY           SKY/WX    TMP DP  RH WIND       PRES   REMARKS
LAKE CHARLES   SUNNY     81  58  45 NE9       29.98F
LAFAYETTE      SUNNY     80  57  45 NE9       29.98F
PATTERSON      SUNNY     81  55  41 NE7       30.00F
SALT POINT       N/A     82  57  42 MISG      29.96F
NEW IBERIA     SUNNY     82  57  42 NE8       29.98F
CHENAULT AIRPK NOT AVBL

$$

LAZ027-028-212300-
CENTRAL LOUISIANA

CITY           SKY/WX    TMP DP  RH WIND       PRES   REMARKS
FORT POLK      SUNNY     79  62  56 NE7       30.00S
ALEXANDRIA INT SUNNY     80  60  50 NE6       29.99S
ALEXANDRIA     SUNNY     80  61  52 CALM      30.01S

$$

LAZ001-002-212300-
NORTHWEST LOUISIANA

CITY           SKY/WX    TMP DP  RH WIND       PRES   REMARKS
SHREVEPORT     MOSUNNY   81  60  48 N5        30.02S
BARKSDALE AFB  PTSUNNY   82  59  46 NE5       30.02F
DTN SHREVEPORT SUNNY     79  60  52 N3        30.02S

$$

LAZ014-016-212300-
NORTHEAST LOUISIANA

CITY           SKY/WX    TMP DP  RH WIND       PRES   REMARKS
MONROE         PTSUNNY   79  60  52 N10       30.02F
TALLULAH       SUNNY     78  58  49 N6        30.01F

$$




USA.gov is the U.S. government's official web portal to all federal, state and local government web resources and services.